Location: Dominion City
(49.1330°N, 97.1500°W)
Time: 22:41:01
(UTC-06:00)

Daily predictions for brighter satellites

Satellite Brightness Start Highest point End
(mag) Time Altitude Azimuth Time Altitude Azimuth Time Altitude Azimuth
Cosmos 1378 4.2 17:31:17 10° SSW 17:34:54 47° WNW 17:38:32 10° N
COSMOS 2455 4.1 17:29:39 10° WSW 17:35:08 35° NW 17:40:40 10° NNE
Cosmos 2034 Rocket 4.1 17:29:10 10° N 17:35:34 84° E 17:41:57 10° S
IDEFIX/ARIANE 42P 2.6 17:32:14 10° SSE 17:37:25 78° ENE 17:42:42 10° NNW
Lacrosse 5 rocket 1.7 17:35:21 10° NW 17:38:51 38° NNE 17:42:29 10° E
Cosmos 841 Rocket 4.3 17:36:43 10° SSE 17:41:20 32° ESE 17:45:58 10° NE
MOS 1 4.3 17:39:15 10° SSE 17:44:53 79° ENE 17:50:35 10° NNW
OTV 4 3.5 17:44:28 10° S 17:44:54 10° S 17:45:20 10° S
CZ-4 R/B 1.4 17:41:48 10° SSE 17:45:40 86° WSW 17:49:36 10° NNW
SL-16 R/B 4.5 17:42:08 10° N 17:47:04 25° NW 17:52:00 10° WSW
Cosmos 1937 Rocket 3.9 17:42:16 10° NNW 17:47:27 72° WSW 17:52:37 10° SSE
Cosmos 468 Rocket 4.0 17:43:30 10° SSW 17:48:40 77° ESE 17:53:50 10° NNE
CENTAUR R/B 2.9 17:45:15 10° SSW 17:51:09 52° ESE 17:57:51 10° NE
Cosmos 2322 3.8 17:45:50 10° SSW 17:51:32 87° ESE 17:57:17 10° NNE
Lacrosse 4 Rocket 3.5 17:52:49 10° NNE 17:53:19 10° NNE 17:53:50 10° NE
In-Cosmos 22 4.2 17:48:35 10° SSW 17:53:57 87° W 17:59:30 10° NNE
Cosmos 1766 Rocket 3.6 17:50:05 10° S 17:54:32 77° E 17:59:00 10° NNE
Meteor 2-2 Rocket 4.2 17:49:50 10° N 17:55:27 62° ENE 18:01:01 10° SSE
SMAP 3.2 17:50:52 10° SSE 17:55:32 84° WSW 18:00:14 10° NNW
Cosmos 1844 Rocket 2.7 17:50:38 10° NNW 17:56:21 88° ENE 18:02:01 10° SSE
Resurs 01 Rocket 3.3 17:55:10 10° E 17:57:18 13° NE 17:59:26 10° NNE
SL-16 R/B 3.5 17:52:52 10° WSW 17:58:09 38° NW 18:03:26 10° NNE
CZ-3A R/B 2.9 17:52:43 10° WNW 17:59:19 64° NNE 18:03:57 10° ESE
Lacrosse 5 2.2 17:55:01 10° WSW 18:00:01 60° NNW 18:04:47 11° NE
COSMO-SKYMED 1 3.4 17:56:31 10° NE 18:00:20 29° E 18:04:08 10° SSE
YAOGAN 1 2.8 18:01:30 10° S 18:05:49 76° WSW 18:10:10 10° NNW
Cosmos 2228 Rocket 3.0 18:01:29 10° N 18:05:55 82° E 18:10:21 10° SSE
Cosmos 2333 4.3 18:00:42 10° S 18:06:08 55° ESE 18:11:36 10° NE
CZ-2C R/B 3.0 18:01:14 10° S 18:06:10 62° W 18:11:00 10° NNW
Cosmos 2279 Rocket 4.4 18:03:51 10° N 18:09:40 40° ENE 18:15:27 10° SE
USA 116 3.3 18:10:13 10° NNE 18:13:35 80° WNW 18:16:42 10° SSW
Cosmos 2360 Rocket 2.7 18:08:47 10° SW 18:14:20 60° WNW 18:19:55 10° NNE
Cosmos 389 Rocket 4.0 18:11:45 10° NNW 18:15:11 42° W 18:18:33 10° SSW
Cosmos 1408 Rocket 4.0 18:10:53 10° SSW 18:15:18 66° W 18:19:45 10° N
SJ-6B 3.8 18:12:28 10° SE 18:15:57 28° ENE 18:19:30 10° N
Cosmos 1980 Rocket 4.4 18:12:40 10° WNW 18:16:04 16° NW 18:19:30 10° N
Meteor 1-21 Rocket 4.4 18:11:52 10° SSW 18:17:47 87° WNW 18:23:40 10° NNE
Cosmos 2058 3.8 18:19:15 10° SE 18:22:42 26° E 18:24:55 17° NE
FENGYUN 3A 4.4 18:23:29 10° ESE 18:28:00 29° ENE 18:32:34 10° N
Cosmos 2333 Rocket 2.6 18:22:46 10° S 18:28:04 43° ESE 18:32:21 15° NE
Cosmos 1763 Rocket 3.5 18:23:49 10° SSW 18:29:04 89° ESE 18:34:15 10° NNE
Cosmos 2346 Rocket 4.4 18:24:09 10° S 18:30:24 76° E 18:36:38 10° NNE
Meteor 2-10 4.0 18:27:38 10° N 18:32:36 53° ENE 18:37:38 10° SSE
Cosmos 372 Rocket 3.9 18:27:42 10° NNW 18:32:48 64° ENE 18:37:51 10° SE
ATLAS 5 CENTAUR R/B 3.8 18:29:42 10° NW 18:33:29 19° N 18:36:14 14° NE
Cosmos 1743 Rocket 3.7 18:32:55 10° SSW 18:37:23 79° W 18:41:55 10° N
Meteor 1-27 4.2 18:33:42 10° N 18:39:29 65° ENE 18:45:16 10° SSE
METEOR-M 4.1 18:35:03 10° SSE 18:40:18 60° ENE 18:45:35 10° N
Cosmos 2219 Rocket 2.1 18:35:46 10° SSW 18:41:20 68° ESE 18:46:00 15° NE
Cosmos 2322 Rocket 4.2 18:38:32 10° W 18:42:50 22° NW 18:47:08 10° N
Cosmos 2278 Rocket 2.2 18:37:09 10° NNW 18:42:52 88° WSW 18:48:34 10° SSE
BREEZE-M DEB (TANK) 3.0 18:41:57 10° SSW 18:43:54 21° SSE 18:43:54 21° SSE
Cosmos 1340 Rocket 3.4 18:41:47 10° SSE 18:45:19 32° E 18:45:23 32° E
Cosmos 1515 Rocket 4.3 18:41:10 10° NNW 18:45:34 56° W 18:49:55 10° S
Cosmos 2151 2.8 18:44:21 10° S 18:48:30 65° E 18:52:25 12° NNE
SKYMED 2 3.5 18:44:16 10° NNE 18:48:39 86° ESE 18:52:59 10° SSW
Cosmos 540 Rocket 3.6 18:44:34 10° S 18:49:33 52° ESE 18:52:40 22° NE
Cosmos 332 Rocket 3.8 18:47:01 10° SSW 18:51:52 81° WNW 18:56:12 13° NNE
Cosmos 1943 Rocket 4.2 18:51:39 10° N 18:53:14 11° NNE 18:53:14 11° NNE
SL-14 R/B 3.1 18:50:06 10° S 18:54:00 73° E 18:57:03 17° NNE
Cosmos 1151 Rocket 3.4 18:50:44 10° NNW 18:54:58 64° W 18:59:12 10° S
Cosmos 1674 4.4 18:51:57 10° SW 18:55:27 33° WNW 18:59:00 10° N
USA 215 3.7 18:49:04 10° SE 18:55:32 62° SW 19:02:02 10° WNW
ATLAS 3B R/B 4.2 18:49:44 10° WNW 18:55:38 25° N 18:59:38 16° NE
Thor Agena Rocket 4.4 18:51:40 10° N 18:56:46 50° WNW 19:01:47 10° SW
Cosmos 1805 Rocket 4.0 18:52:40 10° SSE 18:56:48 38° E 18:57:08 38° E
Cosmos 1484 Rocket 4.5 18:55:24 10° SSW 18:59:02 36° W 19:02:46 10° NNW
DMSP B5D1-3 4.4 18:56:38 10° NNE 19:01:47 81° ESE 19:06:52 10° SSW
Cosmos 1125 Rocket 4.2 18:57:47 10° NNW 19:02:52 55° WSW 19:07:55 10° S
Timation 1 Rocket 4.2 18:57:06 10° NNW 19:03:09 77° ENE 19:09:11 10° SE
Cosmos 1500 Rocket 4.1 19:00:08 10° SSW 19:04:23 57° WNW 19:08:43 10° N
BREEZE M DEB (TANK) 3.0 19:03:04 10° W 19:05:27 26° SSW 19:05:48 25° SSW
NOAA 12 4.2 19:02:12 10° SSE 19:07:26 79° WSW 19:12:44 10° NNW
Cosmos 1300 3.8 19:03:56 10° NNW 19:07:37 45° W 19:11:17 10° SSW
CZ-4C R/B 4.0 19:02:38 10° NW 19:07:38 24° N 19:09:59 20° NE
COSMOS 2428 3.5 19:03:22 10° SW 19:08:55 50° NW 19:13:57 13° NNE
Cosmos 1726 3.5 19:05:46 10° NNW 19:09:19 41° W 19:12:53 10° SSW
ALOS 2.2 19:06:58 10° SSE 19:11:33 59° ENE 19:16:10 10° N
Cosmos 2237 Rocket 2.1 19:06:28 10° SSW 19:12:03 72° ESE 19:14:53 30° NE
Cosmos 2369 Rocket 3.6 19:09:36 10° N 19:13:02 21° NNE 19:13:02 21° NNE
Cosmos 44 3.4 19:08:52 10° SSW 19:14:01 61° ESE 19:15:09 48° ENE
SL-16 R/B 2.8 19:11:42 10° S 19:16:18 36° ESE 19:16:18 36° ESE
Spot 2 Rocket 3.4 19:12:05 10° SSE 19:17:04 64° ENE 19:22:04 10° N
Lacrosse 5 rocket 1.8 19:14:29 10° WNW 19:18:10 52° SW 19:19:24 35° SSE
Cosmos 2297 3.6 19:16:12 10° NNW 19:21:56 89° WSW 19:27:01 13° SSE
Cosmos 371 Rocket 3.8 19:17:33 10° SW 19:22:17 59° WNW 19:25:21 22° N
FREGAT/IRIS 4.3 19:25:11 29° NW 19:25:11 29° NW 19:26:54 10° NNW
NOSS 0 Rocket 4.0 19:23:02 10° SSW 19:29:17 81° WNW 19:32:50 28° NNE
Meteor 1-28 Rocket 4.3 19:29:52 21° N 19:31:57 42° WNW 19:35:28 10° SW
SL-19 R/B 4.4 19:26:44 10° SSE 19:32:39 78° WSW 19:38:18 10° NNW
Resurs 01 Rocket 1.5 19:31:55 49° SSE 19:33:06 88° E 19:37:35 10° NNW
Lacrosse 4 Rocket 3.0 19:29:17 10° NNW 19:31:05 23° N 19:31:05 23° N
Cosmos 2084 3.5 19:31:21 10° SW 19:34:44 62° W 19:34:44 62° W
COSMO-SKYMED 1 4.2 19:32:37 10° N 19:36:31 33° WNW 19:40:25 10° SW
Aureole 2 Rocket 3.7 19:36:12 10° SSW 19:38:34 38° SSW 19:38:34 38° SSW
Cosmos 1707 Rocket 3.8 19:36:35 10° NNW 19:40:54 65° W 19:45:10 10° S
CENTAUR R/B 3.4 19:35:47 10° WSW 19:41:57 48° NW 19:45:38 27° NNE
Cosmos 44 Rocket 3.7 19:37:02 10° SW 19:42:06 61° NW 19:43:11 49° N
Lacrosse 5 2.9 19:39:08 10° WNW 19:43:46 34° N 19:43:59 34° N
Resurs 1-3 4.4 19:46:40 44° NNW 19:46:40 44° NNW 19:49:43 10° NNW
Cosmos 1980 4.4 19:54:03 10° SW 19:59:36 52° NW 20:01:38 35° N
FENGYUN 3A 4.4 20:02:49 10° S 20:08:01 50° W 20:13:16 10° NNW
Cosmos 2333 Rocket 3.4 20:07:09 10° WSW 20:12:24 38° NW 20:14:23 29° N
ATLAS 5 CENTAUR R/B 3.8 20:14:51 10° NNW 20:17:48 25° N 20:17:48 25° N
Nadezhda 4 Rocket 4.4 20:14:02 10° SSW 20:20:13 62° WNW 20:26:30 10° N
Cosmos 2219 Rocket 3.9 20:21:03 10° WSW 20:25:48 27° NW 20:27:46 22° NNW
Cosmos 1092 Rocket 4.5 20:31:19 10° SSW 20:45:20 - N 20:36:36 56° WSW
Cosmos 1943 Rocket 4.4 20:33:44 10° NNW 20:34:46 15° N 20:34:46 15° N
ATLAS 3B R/B 4.1 20:42:29 10° NW 20:46:53 27° N 20:46:53 27° N
Cosmos 2237 Rocket 4.0 20:52:01 10° W 20:56:41 26° NW 20:56:46 26° NW
CZ-4C R/B 4.1 20:51:43 10° NW 20:55:11 29° NNW 20:55:11 29° NNW
Cosmos 2369 Rocket 4.2 20:53:04 10° NNW 20:54:50 21° NNW 20:54:50 21° NNW
SL-16 R/B 3.9 20:55:30 10° SW 20:58:16 27° WSW 20:58:16 27° WSW
CENTAUR R/B 4.5 21:28:43 10° WNW 21:32:50 25° NNW 21:32:50 25° NNW
